Regional Weather Roundup
Issued by NWS

Home | Current Version | Previous Version | Text Only | Print | Product List | Glossary On
Versions: 1 2 3 4 5 6 7 8 9 10 11 12 13 14 15 16 17 18 19 20 21 22 23 24 25 26 27 28
000
ASUS42 KKEY 240210
RWRKEY

FLORIDA REGIONAL WEATHER ROUNDUP FOR THE FLORIDA KEYS
NATIONAL WEATHER SERVICE KEY WEST FLORIDA
1000 PM EDT TUE AUG 23 2016

...SOUTH FLORIDA AND THE KEYS...

CITY           SKY/WX    TMP DP  RH WIND       PRES   REMARKS
FORT MYERS     CLEAR     85  74  69 E7        30.09R HX  92
SW REGIONAL AP CLEAR     85  73  67 E7        30.10R HX  91
NAPLES         PTCLDY    86  74  67 E12       30.08R HX  94
MIAMI          MOCLDY    85  77  77 NE9       30.09R HX  95
WEST KENDALL   PTCLDY    85  77  77 NE12      30.09R HX  95
HOMESTEAD      CLEAR     84  77  79 NE10      30.08R HX  94
MARATHON       CLEAR     87  75  67 E10       30.07R HX  96
BOCA CHICA NAS PTCLDY    85  77  77 E9        30.08R HX  95
KEY WEST INTL  CLEAR     82  79  90 E6        30.08R HX  92

...INTERNATIONAL WEATHER...

CITY           SKY/WX    TMP DP  RH WIND       PRES   REMARKS
NASSAU BAHAMAS PTCLDY    84  75  74 NE9       30.06R HX  92
CANCUN MEXICO  PTCLDY    82  79  89 CALM      30.06S HX  93
COZUMEL MEXICO PTCLDY    79  77  94 NE5       30.06R

ADJACENT COASTAL WATERS...

STATION/POSITION TIME  SKY/WX   TEMP    WIND        PRES    WAVE
                                AIR SEA DIR/SP/G            HT/PER
                 (UTC)          (F)     (DEG/KT/KT) (MB)    (FT/S)
PULASKI SHOAL LI 0200            86      50/  7/  7 1018.7R
SAND KEY         0150            85     110/ 10/ 12 1018.9R
LONG KEY         0200            87 91   80/ 16/ 18 1018.6R
FOWEY ROCKS      0200            85 87   40/ 18/ 19 1019.3R

$$




USA.gov is the U.S. government's official web portal to all federal, state and local government web resources and services.